Regional Weather Roundup
Issued by NWS

Home | Current Version | Previous Version | Graphics & Text | Print | Product List | Glossary On
Versions: 1 2 3 4 5 6 7 8 9 10 11 12 13 14 15 16 17 18 19 20 21 22 23 24 25 26 27 28 29 30 31 32 33 34 35 36 37 38 39 40 41 42 43 44 45 46 47 48 49 50
000
ASUS43 KBIS 230902
RWRND

NORTH DAKOTA REGIONAL WEATHER ROUNDUP
NATIONAL WEATHER SERVICE BISMARCK ND
400 AM CDT MON OCT 23 2017

NOTE: "FAIR" INDICATES FEW OR NO CLOUDS BELOW 12,000 FEET WITH NO
SIGNIFICANT WEATHER AND/OR OBSTRUCTIONS TO VISIBILITY.


NDZ001>003-009>011-017-231000-
NORTHWEST NORTH DAKOTA

CITY           SKY/WX    TMP DP  RH WIND       PRES   REMARKS
WILLISTON        N/A    N/A N/A N/A MISG      29.94R
MINOT          MOCLDY    44  35  70 W25G37    29.81R
MINOT AFB      MOCLDY    42  35  76 NW24G30   29.80R
$$

NDZ018>021-031>035-040>046-231000-
SOUTHWEST NORTH DAKOTA

CITY           SKY/WX    TMP DP  RH WIND       PRES   REMARKS
BISMARCK       PTCLDY    50  37  61 W16G23    29.85R
DICKINSON      PTCLDY    44  35  70 W20       29.93R
GARRISON         N/A     45  34  65 NW16      29.83R
HETTINGER ARPT CLOUDY    45  35  68 W22G32    30.00R
$$

NDZ004>008-012>016-024-026-027-054-231000-
NORTHEAST NORTH DAKOTA

CITY           SKY/WX    TMP DP  RH WIND       PRES   REMARKS
GRAND FORKS    CLOUDY    53  42  66 W15       29.61R
DEVILS LAKE    CLOUDY    46  36  68 W24G30    29.69R
$$

NDZ022-023-025-028>030-036>039-047>053-231000-
SOUTHEAST NORTH DAKOTA

CITY           SKY/WX    TMP DP  RH WIND       PRES   REMARKS
FARGO          CLOUDY    53  44  71 W15       29.67R
JAMESTOWN      CLOUDY    51  38  60 W21G29    29.73R
$$





USA.gov is the U.S. government's official web portal to all federal, state and local government web resources and services.